Time,TemperatureF,DewpointF,PressureIn,WindDirection,WindDirectionDegrees,WindSpeedMPH,WindSpeedGustMPH,Humidity,HourlyPrecipIn,Conditions,Clouds,dailyrainin,SoftwareType,DateUTC
2013-04-26 00:04:00,50.1,39.2,29.99,SSE,159,6.0,8.0,66,0.00,,,0.00,Wunderground v.1.15,2013-04-26 05:04:00,
2013-04-26 00:06:00,50.2,39.3,29.99,SSE,163,6.0,8.0,66,0.00,,,0.00,Wunderground v.1.15,2013-04-26 05:06:00,
2013-04-26 00:08:00,50.2,39.3,29.99,SE,131,7.0,8.0,66,0.00,,,0.00,Wunderground v.1.15,2013-04-26 05:08:00,
2013-04-26 00:10:00,50.3,39.0,29.99,SSE,150,7.0,8.0,65,0.00,,,0.00,Wunderground v.1.15,2013-04-26 05:10:00,
2013-04-26 00:12:00,50.3,39.4,29.99,SSE,156,7.0,8.0,66,0.00,,,0.00,Wunderground v.1.15,2013-04-26 05:12:00,
2013-04-26 00:18:00,50.2,39.3,29.99,SSE,150,8.0,8.0,66,0.00,,,0.00,Wunderground v.1.15,2013-04-26 05:18:00,
2013-04-26 00:20:00,50.2,39.3,29.99,SSE,159,8.0,8.0,66,0.00,,,0.00,Wunderground v.1.15,2013-04-26 05:20:00,
2013-04-26 00:26:00,50.1,39.2,29.98,SSE,165,8.0,8.0,66,0.00,,,0.00,Wunderground v.1.15,2013-04-26 05:26:00,
2013-04-26 00:28:00,50.1,39.2,29.98,ESE,121,8.0,8.0,66,0.00,,,0.00,Wunderground v.1.15,2013-04-26 05:28:00,
2013-04-26 00:30:00,50.0,39.1,29.98,SE,139,8.0,8.0,66,0.00,,,0.00,Wunderground v.1.15,2013-04-26 05:30:00,
2013-04-26 00:34:00,50.0,39.5,29.99,SSE,163,8.0,9.0,67,0.00,,,0.00,Wunderground v.1.15,2013-04-26 05:34:00,
2013-04-26 00:40:00,49.9,39.4,29.99,SSE,157,8.0,8.0,67,0.00,,,0.00,Wunderground v.1.15,2013-04-26 05:40:00,
2013-04-26 00:43:00,49.8,39.3,29.99,SE,142,8.0,9.0,67,0.00,,,0.00,Wunderground v.1.15,2013-04-26 05:43:00,
2013-04-26 00:50:00,49.6,39.5,29.98,SSE,148,8.0,8.0,68,0.00,,,0.00,Wunderground v.1.15,2013-04-26 05:50:00,
2013-04-26 00:52:00,49.6,39.5,29.98,SE,146,8.0,8.0,68,0.00,,,0.00,Wunderground v.1.15,2013-04-26 05:52:00,
2013-04-26 00:54:00,49.5,39.4,29.98,SSE,156,8.0,10.0,68,0.00,,,0.00,Wunderground v.1.15,2013-04-26 05:54:00,
2013-04-26 00:56:00,49.4,39.7,29.98,SE,145,8.0,10.0,69,0.00,,,0.00,Wunderground v.1.15,2013-04-26 05:56:00,
2013-04-26 00:58:00,49.4,39.7,29.98,SSE,155,8.0,10.0,69,0.00,,,0.00,Wunderground v.1.15,2013-04-26 05:58:00,
2013-04-26 01:00:00,49.4,39.7,29.98,South,180,8.0,10.0,69,0.00,,,0.00,Wunderground v.1.15,2013-04-26 06:00:00,
2013-04-26 01:03:00,49.4,39.7,29.99,SSE,158,9.0,11.0,69,0.00,,,0.00,Wunderground v.1.15,2013-04-26 06:03:00,
2013-04-26 01:05:00,49.3,39.9,29.98,SSE,162,9.0,11.0,70,0.00,,,0.00,Wunderground v.1.15,2013-04-26 06:05:00,
2013-04-26 01:08:00,49.3,39.6,29.98,South,174,9.0,11.0,69,0.00,,,0.00,Wunderground v.1.15,2013-04-26 06:08:00,
2013-04-26 01:10:00,49.3,39.9,29.98,SE,133,9.0,9.0,70,0.00,,,0.00,Wunderground v.1.15,2013-04-26 06:10:00,
2013-04-26 01:12:00,49.2,39.8,29.98,SE,139,9.0,11.0,70,0.00,,,0.00,Wunderground v.1.15,2013-04-26 06:12:00,
2013-04-26 01:14:00,49.2,39.8,29.98,SSE,159,9.0,11.0,70,0.00,,,0.00,Wunderground v.1.15,2013-04-26 06:14:00,
2013-04-26 01:16:00,49.1,39.7,29.98,South,172,9.0,11.0,70,0.00,,,0.00,Wunderground v.1.15,2013-04-26 06:16:00,
2013-04-26 01:18:00,49.1,39.7,29.97,SE,135,8.0,11.0,70,0.00,,,0.00,Wunderground v.1.15,2013-04-26 06:18:00,
2013-04-26 01:20:00,49.1,40.1,29.97,SE,145,8.0,11.0,71,0.00,,,0.00,Wunderground v.1.15,2013-04-26 06:20:00,
2013-04-26 01:22:00,49.0,40.0,29.97,South,181,8.0,11.0,71,0.00,,,0.00,Wunderground v.1.15,2013-04-26 06:22:00,
2013-04-26 01:24:00,48.9,40.3,29.98,SE,135,8.0,11.0,72,0.00,,,0.00,Wunderground v.1.15,2013-04-26 06:24:00,
2013-04-26 01:25:00,48.9,40.3,29.97,SSE,163,8.0,11.0,72,0.00,,,0.00,Wunderground v.1.15,2013-04-26 06:25:00,
2013-04-26 01:32:00,48.8,40.2,29.97,SSE,153,8.0,11.0,72,0.00,,,0.00,Wunderground v.1.15,2013-04-26 06:32:00,
2013-04-26 01:34:00,48.8,40.2,29.97,South,184,8.0,11.0,72,0.00,,,0.00,Wunderground v.1.15,2013-04-26 06:34:00,
2013-04-26 01:36:00,48.8,40.2,29.97,SE,139,8.0,11.0,72,0.00,,,0.00,Wunderground v.1.15,2013-04-26 06:36:00,
2013-04-26 01:38:00,48.8,40.2,29.97,SSE,153,8.0,11.0,72,0.00,,,0.00,Wunderground v.1.15,2013-04-26 06:38:00,
2013-04-26 01:42:00,48.7,40.1,29.96,South,177,8.0,12.0,72,0.00,,,0.00,Wunderground v.1.15,2013-04-26 06:42:00,
2013-04-26 01:44:00,48.7,40.1,29.96,SSE,165,8.0,12.0,72,0.00,,,0.00,Wunderground v.1.15,2013-04-26 06:44:00,
2013-04-26 01:45:00,48.7,40.1,29.96,SSE,159,8.0,12.0,72,0.00,,,0.00,Wunderground v.1.15,2013-04-26 06:45:00,
2013-04-26 01:50:00,48.7,40.4,29.95,SSE,158,9.0,11.0,73,0.00,,,0.00,Wunderground v.1.15,2013-04-26 06:50:00,
2013-04-26 01:52:00,48.6,40.3,29.95,SSE,156,9.0,11.0,73,0.00,,,0.00,Wunderground v.1.15,2013-04-26 06:52:00,
2013-04-26 01:56:00,48.6,40.3,29.94,South,169,9.0,11.0,73,0.00,,,0.00,Wunderground v.1.15,2013-04-26 06:56:00,
2013-04-26 01:58:00,48.6,40.3,29.94,SSE,154,9.0,11.0,73,0.00,,,0.00,Wunderground v.1.15,2013-04-26 06:58:00,
2013-04-26 02:02:00,48.7,40.4,29.93,SSE,165,10.0,14.0,73,0.00,,,0.00,Wunderground v.1.15,2013-04-26 07:02:00,
2013-04-26 02:06:00,48.8,40.5,29.94,SSE,168,11.0,14.0,73,0.00,,,0.00,Wunderground v.1.15,2013-04-26 07:06:00,
2013-04-26 02:07:00,48.8,40.5,29.94,South,170,10.0,14.0,73,0.00,,,0.00,Wunderground v.1.15,2013-04-26 07:07:00,
2013-04-26 02:09:00,48.9,40.3,29.95,SSW,201,9.0,9.0,72,0.00,,,0.00,Wunderground v.1.15,2013-04-26 07:09:00,
2013-04-26 02:14:00,49.0,40.4,29.94,South,174,8.0,11.0,72,0.00,,,0.00,Wunderground v.1.15,2013-04-26 07:14:00,
2013-04-26 02:16:00,49.1,40.5,29.94,South,174,8.0,11.0,72,0.00,,,0.00,Wunderground v.1.15,2013-04-26 07:16:00,
2013-04-26 02:22:00,49.3,40.7,29.95,SSW,195,8.0,11.0,72,0.00,,,0.00,Wunderground v.1.15,2013-04-26 07:22:00,
2013-04-26 02:24:00,49.3,40.7,29.95,ESE,115,8.0,11.0,72,0.00,,,0.00,Wunderground v.1.15,2013-04-26 07:24:00,
2013-04-26 02:26:00,49.3,40.3,29.95,SSW,210,8.0,11.0,71,0.00,,,0.00,Wunderground v.1.15,2013-04-26 07:26:00,
2013-04-26 02:28:00,49.3,40.3,29.95,South,174,8.0,11.0,71,0.00,,,0.00,Wunderground v.1.15,2013-04-26 07:28:00,
2013-04-26 02:31:00,49.2,40.6,29.95,SSW,212,8.0,12.0,72,0.00,,,0.00,Wunderground v.1.15,2013-04-26 07:31:00,
2013-04-26 02:34:00,49.1,40.5,29.94,SE,139,8.0,12.0,72,0.00,,,0.00,Wunderground v.1.15,2013-04-26 07:34:00,
2013-04-26 02:36:00,49.1,40.5,29.94,South,180,7.0,12.0,72,0.00,,,0.00,Wunderground v.1.15,2013-04-26 07:36:00,
2013-04-26 02:42:00,48.8,40.5,29.94,South,187,7.0,11.0,73,0.00,,,0.00,Wunderground v.1.15,2013-04-26 07:42:00,
2013-04-26 02:44:00,48.7,40.4,29.94,SW,221,7.0,11.0,73,0.00,,,0.00,Wunderground v.1.15,2013-04-26 07:44:00,
2013-04-26 02:48:00,48.6,40.3,29.94,SSE,162,7.0,11.0,73,0.00,,,0.00,Wunderground v.1.15,2013-04-26 07:48:00,
2013-04-26 02:49:00,48.5,40.2,29.94,South,188,7.0,11.0,73,0.00,,,0.00,Wunderground v.1.15,2013-04-26 07:49:00,
2013-04-26 02:51:00,48.5,40.2,29.94,SSW,193,7.0,12.0,73,0.00,,,0.00,Wunderground v.1.15,2013-04-26 07:51:00,
2013-04-26 02:56:00,48.5,40.2,29.94,South,176,7.0,12.0,73,0.00,,,0.00,Wunderground v.1.15,2013-04-26 07:56:00,
2013-04-26 02:58:00,48.5,40.6,29.94,SSW,193,7.0,12.0,74,0.00,,,0.00,Wunderground v.1.15,2013-04-26 07:58:00,
2013-04-26 03:00:00,48.5,40.6,29.94,SSW,212,7.0,13.0,74,0.00,,,0.00,Wunderground v.1.15,2013-04-26 08:00:00,
2013-04-26 03:02:00,48.5,40.6,29.94,SSW,212,7.0,13.0,74,0.00,,,0.00,Wunderground v.1.15,2013-04-26 08:02:00,
2013-04-26 03:04:00,48.5,40.6,29.94,SSW,212,7.0,13.0,74,0.00,,,0.00,Wunderground v.1.15,2013-04-26 08:04:00,
2013-04-26 03:06:00,48.5,40.6,29.94,SW,228,7.0,13.0,74,0.00,,,0.00,Wunderground v.1.15,2013-04-26 08:06:00,
2013-04-26 03:08:00,48.5,40.6,29.94,SSW,193,7.0,13.0,74,0.00,,,0.00,Wunderground v.1.15,2013-04-26 08:08:00,
2013-04-26 03:10:00,48.5,40.6,29.94,SSE,151,7.0,7.0,74,0.00,,,0.00,Wunderground v.1.15,2013-04-26 08:10:00,
2013-04-26 03:11:00,48.4,40.5,29.94,SW,229,7.0,8.0,74,0.00,,,0.00,Wunderground v.1.15,2013-04-26 08:11:00,
2013-04-26 03:13:00,48.3,40.4,29.94,SE,138,7.0,11.0,74,0.00,,,0.00,Wunderground v.1.15,2013-04-26 08:13:00,
2013-04-26 03:16:00,48.3,40.4,29.94,WSW,238,7.0,11.0,74,0.00,,,0.00,Wunderground v.1.15,2013-04-26 08:16:00,
2013-04-26 03:18:00,48.3,40.7,29.94,SSE,167,7.0,11.0,75,0.00,,,0.00,Wunderground v.1.15,2013-04-26 08:18:00,
2013-04-26 03:20:00,48.3,40.7,29.94,SSW,208,7.0,11.0,75,0.00,,,0.00,Wunderground v.1.15,2013-04-26 08:20:00,
2013-04-26 03:24:00,48.2,40.6,29.94,SW,222,8.0,11.0,75,0.00,,,0.00,Wunderground v.1.15,2013-04-26 08:24:00,
2013-04-26 03:28:00,48.1,40.5,29.94,SSW,205,7.0,11.0,75,0.00,,,0.00,Wunderground v.1.15,2013-04-26 08:28:00,
2013-04-26 03:30:00,48.1,40.5,29.94,South,190,7.0,11.0,75,0.00,,,0.00,Wunderground v.1.15,2013-04-26 08:30:00,
2013-04-26 03:32:00,48.1,40.5,29.94,SSW,194,6.0,11.0,75,0.00,,,0.00,Wunderground v.1.15,2013-04-26 08:32:00,
2013-04-26 03:35:00,48.0,40.5,29.94,SSE,159,6.0,11.0,75,0.00,,,0.00,Wunderground v.1.15,2013-04-26 08:35:00,
2013-04-26 03:38:00,47.9,40.4,29.94,SE,135,6.0,11.0,75,0.00,,,0.00,Wunderground v.1.15,2013-04-26 08:38:00,
2013-04-26 03:40:00,47.9,40.7,29.94,SSE,156,6.0,6.0,76,0.00,,,0.00,Wunderground v.1.15,2013-04-26 08:40:00,
2013-04-26 03:42:00,47.8,40.6,29.94,SSW,205,6.0,7.0,76,0.00,,,0.00,Wunderground v.1.15,2013-04-26 08:42:00,
2013-04-26 03:44:00,47.8,40.6,29.94,South,172,6.0,11.0,76,0.00,,,0.00,Wunderground v.1.15,2013-04-26 08:44:00,
2013-04-26 03:46:00,47.7,40.5,29.94,SSW,200,6.0,11.0,76,0.00,,,0.00,Wunderground v.1.15,2013-04-26 08:46:00,
2013-04-26 03:48:00,47.6,40.4,29.94,SSW,211,6.0,11.0,76,0.00,,,0.00,Wunderground v.1.15,2013-04-26 08:48:00,
2013-04-26 03:50:00,47.5,40.3,29.94,South,188,6.0,11.0,76,0.00,,,0.00,Wunderground v.1.15,2013-04-26 08:50:00,
2013-04-26 03:53:00,47.3,40.5,29.94,SSW,208,6.0,11.0,77,0.00,,,0.00,Wunderground v.1.15,2013-04-26 08:53:00,
2013-04-26 03:58:00,47.3,40.5,29.94,South,180,6.0,11.0,77,0.00,,,0.00,Wunderground v.1.15,2013-04-26 08:58:00,
2013-04-26 04:02:00,47.2,40.4,29.94,SW,225,6.0,11.0,77,0.00,,,0.00,Wunderground v.1.15,2013-04-26 09:02:00,
2013-04-26 04:04:00,47.2,40.4,29.94,SSW,200,6.0,11.0,77,0.00,,,0.00,Wunderground v.1.15,2013-04-26 09:04:00,
2013-04-26 04:06:00,47.2,40.4,29.94,SW,214,6.0,11.0,77,0.00,,,0.00,Wunderground v.1.15,2013-04-26 09:06:00,
2013-04-26 04:08:00,47.1,40.3,29.94,South,190,6.0,11.0,77,0.00,,,0.00,Wunderground v.1.15,2013-04-26 09:08:00,
2013-04-26 04:12:00,47.0,40.2,29.93,South,169,7.0,7.0,77,0.00,,,0.00,Wunderground v.1.15,2013-04-26 09:12:00,
2013-04-26 04:14:00,47.0,40.2,29.94,South,190,7.0,11.0,77,0.00,,,0.00,Wunderground v.1.15,2013-04-26 09:14:00,
2013-04-26 04:15:00,47.0,40.2,29.94,South,174,7.0,11.0,77,0.00,,,0.00,Wunderground v.1.15,2013-04-26 09:15:00,
2013-04-26 04:20:00,46.9,40.4,29.93,SSW,201,7.0,11.0,78,0.00,,,0.00,Wunderground v.1.15,2013-04-26 09:20:00,
2013-04-26 04:22:00,46.9,40.4,29.94,SW,219,7.0,11.0,78,0.00,,,0.00,Wunderground v.1.15,2013-04-26 09:22:00,
2013-04-26 04:26:00,46.9,40.1,29.94,South,179,7.0,11.0,77,0.00,,,0.00,Wunderground v.1.15,2013-04-26 09:26:00,
2013-04-26 04:28:00,47.0,40.2,29.94,South,180,7.0,11.0,77,0.00,,,0.00,Wunderground v.1.15,2013-04-26 09:28:00,
2013-04-26 04:30:00,47.0,40.2,29.94,SSE,165,7.0,7.0,77,0.00,,,0.00,Wunderground v.1.15,2013-04-26 09:30:00,
2013-04-26 04:32:00,47.0,40.2,29.93,SSE,155,7.0,11.0,77,0.00,,,0.00,Wunderground v.1.15,2013-04-26 09:32:00,
2013-04-26 04:34:00,47.1,40.3,29.93,SSW,197,7.0,11.0,77,0.00,,,0.00,Wunderground v.1.15,2013-04-26 09:34:00,
2013-04-26 04:36:00,47.1,40.3,29.93,SSW,200,7.0,11.0,77,0.00,,,0.00,Wunderground v.1.15,2013-04-26 09:36:00,
2013-04-26 04:37:00,47.1,40.3,29.94,SSW,198,6.0,11.0,77,0.00,,,0.00,Wunderground v.1.15,2013-04-26 09:37:00,
2013-04-26 04:39:00,47.1,40.3,29.94,SSE,167,6.0,11.0,77,0.00,,,0.00,Wunderground v.1.15,2013-04-26 09:39:00,
2013-04-26 04:42:00,47.2,40.4,29.94,SSW,207,6.0,11.0,77,0.00,,,0.00,Wunderground v.1.15,2013-04-26 09:42:00,
2013-04-26 04:48:00,47.2,40.4,29.93,SSW,205,7.0,11.0,77,0.00,,,0.00,Wunderground v.1.15,2013-04-26 09:48:00,
2013-04-26 04:52:00,47.3,40.1,29.93,South,176,7.0,11.0,76,0.00,,,0.00,Wunderground v.1.15,2013-04-26 09:52:00,
2013-04-26 04:54:00,47.3,40.1,29.93,South,174,7.0,11.0,76,0.00,,,0.00,Wunderground v.1.15,2013-04-26 09:54:00,
2013-04-26 04:57:00,47.4,40.2,29.93,SW,214,7.0,11.0,76,0.00,,,0.00,Wunderground v.1.15,2013-04-26 09:57:00,
2013-04-26 05:00:00,47.4,40.2,29.93,SSW,194,7.0,7.0,76,0.00,,,0.00,Wunderground v.1.15,2013-04-26 10:00:00,
2013-04-26 05:04:00,47.3,40.1,29.93,South,188,7.0,11.0,76,0.00,,,0.00,Wunderground v.1.15,2013-04-26 10:04:00,
2013-04-26 05:06:00,47.3,40.1,29.94,South,191,7.0,11.0,76,0.00,,,0.00,Wunderground v.1.15,2013-04-26 10:06:00,
2013-04-26 05:10:00,47.2,40.0,29.93,SSW,203,7.0,7.0,76,0.00,,,0.00,Wunderground v.1.15,2013-04-26 10:10:00,
2013-04-26 05:12:00,47.1,39.9,29.93,South,190,7.0,11.0,76,0.00,,,0.00,Wunderground v.1.15,2013-04-26 10:12:00,
2013-04-26 05:14:00,47.0,40.2,29.93,SSE,161,6.0,11.0,77,0.00,,,0.00,Wunderground v.1.15,2013-04-26 10:14:00,
2013-04-26 05:16:00,46.9,40.1,29.93,SW,222,7.0,11.0,77,0.00,,,0.00,Wunderground v.1.15,2013-04-26 10:16:00,
2013-04-26 05:21:00,46.8,40.0,29.93,SSE,167,6.0,7.0,77,0.00,,,0.00,Wunderground v.1.15,2013-04-26 10:21:00,
2013-04-26 05:28:00,46.8,40.0,29.93,SSE,159,6.0,11.0,77,0.00,,,0.00,Wunderground v.1.15,2013-04-26 10:28:00,
2013-04-26 05:30:00,46.8,40.0,29.93,SSW,200,6.0,6.0,77,0.00,,,0.00,Wunderground v.1.15,2013-04-26 10:30:00,
2013-04-26 05:34:00,46.8,40.0,29.93,SSE,155,6.0,11.0,77,0.00,,,0.00,Wunderground v.1.15,2013-04-26 10:34:00,
2013-04-26 05:36:00,46.8,40.0,29.93,SSW,195,6.0,11.0,77,0.00,,,0.00,Wunderground v.1.15,2013-04-26 10:36:00,
2013-04-26 05:40:00,46.6,39.8,29.93,South,190,5.0,11.0,77,0.00,,,0.00,Wunderground v.1.15,2013-04-26 10:40:00,
2013-04-26 05:41:00,46.6,39.8,29.93,South,187,6.0,11.0,77,0.00,,,0.00,Wunderground v.1.15,2013-04-26 10:41:00,
2013-04-26 05:46:00,46.4,39.6,29.93,SE,134,6.0,11.0,77,0.00,,,0.00,Wunderground v.1.15,2013-04-26 10:46:00,
2013-04-26 05:48:00,46.3,39.5,29.93,SW,235,6.0,11.0,77,0.00,,,0.00,Wunderground v.1.15,2013-04-26 10:48:00,
2013-04-26 05:50:00,46.3,39.5,29.93,SW,217,6.0,11.0,77,0.00,,,0.00,Wunderground v.1.15,2013-04-26 10:50:00,
2013-04-26 05:52:00,46.2,39.7,29.93,South,176,6.0,11.0,78,0.00,,,0.00,Wunderground v.1.15,2013-04-26 10:52:00,
2013-04-26 05:54:00,46.1,39.6,29.93,SSE,162,6.0,11.0,78,0.00,,,0.00,Wunderground v.1.15,2013-04-26 10:54:00,
2013-04-26 05:58:00,46.0,39.5,29.93,SW,217,6.0,11.0,78,0.00,,,0.00,Wunderground v.1.15,2013-04-26 10:58:00,
2013-04-26 06:00:00,45.9,39.4,29.93,SSE,156,6.0,6.0,78,0.00,,,0.00,Wunderground v.1.15,2013-04-26 11:00:00,
2013-04-26 06:03:00,45.8,39.3,29.93,SSW,210,6.0,11.0,78,0.00,,,0.00,Wunderground v.1.15,2013-04-26 11:03:00,
2013-04-26 06:06:00,45.8,39.3,29.93,SSW,196,6.0,11.0,78,0.00,,,0.00,Wunderground v.1.15,2013-04-26 11:06:00,
2013-04-26 06:10:00,45.7,39.2,29.93,South,176,6.0,6.0,78,0.00,,,0.00,Wunderground v.1.15,2013-04-26 11:10:00,
2013-04-26 06:12:00,45.7,39.2,29.93,SSW,207,6.0,9.0,78,0.00,,,0.00,Wunderground v.1.15,2013-04-26 11:12:00,
2013-04-26 06:14:00,45.7,39.2,29.93,South,190,6.0,11.0,78,0.00,,,0.00,Wunderground v.1.15,2013-04-26 11:14:00,
2013-04-26 06:16:00,45.6,39.1,29.93,South,191,6.0,11.0,78,0.00,,,0.00,Wunderground v.1.15,2013-04-26 11:16:00,
2013-04-26 06:18:00,45.6,39.1,29.93,SE,145,6.0,11.0,78,0.00,,,0.00,Wunderground v.1.15,2013-04-26 11:18:00,
2013-04-26 06:23:00,45.6,39.1,29.93,South,169,7.0,11.0,78,0.00,,,0.00,Wunderground v.1.15,2013-04-26 11:23:00,
2013-04-26 06:25:00,45.6,39.1,29.93,SE,127,6.0,11.0,78,0.00,,,0.00,Wunderground v.1.15,2013-04-26 11:25:00,
2013-04-26 06:28:00,45.5,39.0,29.93,South,183,6.0,11.0,78,0.00,,,0.00,Wunderground v.1.15,2013-04-26 11:28:00,
2013-04-26 06:30:00,45.5,39.0,29.93,South,173,6.0,6.0,78,0.00,,,0.00,Wunderground v.1.15,2013-04-26 11:30:00,
2013-04-26 06:32:00,45.5,39.0,29.93,SSW,198,6.0,11.0,78,0.00,,,0.00,Wunderground v.1.15,2013-04-26 11:32:00,
2013-04-26 06:34:00,45.5,39.0,29.93,WSW,255,5.0,11.0,78,0.00,,,0.00,Wunderground v.1.15,2013-04-26 11:34:00,
2013-04-26 06:38:00,45.5,39.0,29.93,SSW,200,5.0,11.0,78,0.00,,,0.00,Wunderground v.1.15,2013-04-26 11:38:00,
2013-04-26 06:40:00,45.4,38.9,29.93,SSE,156,5.0,5.0,78,0.00,,,0.00,Wunderground v.1.15,2013-04-26 11:40:00,
2013-04-26 06:42:00,45.4,38.9,29.93,SSE,158,5.0,11.0,78,0.00,,,0.00,Wunderground v.1.15,2013-04-26 11:42:00,
2013-04-26 06:46:00,45.5,39.0,29.94,SSW,201,5.0,11.0,78,0.00,,,0.00,Wunderground v.1.15,2013-04-26 11:46:00,
2013-04-26 06:47:00,45.6,39.1,29.93,South,175,5.0,11.0,78,0.00,,,0.00,Wunderground v.1.15,2013-04-26 11:47:00,
2013-04-26 06:50:00,45.6,39.1,29.94,South,173,5.0,11.0,78,0.00,,,0.00,Wunderground v.1.15,2013-04-26 11:50:00,
2013-04-26 06:52:00,45.7,39.2,29.94,ESE,115,5.0,11.0,78,0.00,,,0.00,Wunderground v.1.15,2013-04-26 11:52:00,
2013-04-26 06:58:00,45.9,39.1,29.94,SSW,208,6.0,11.0,77,0.00,,,0.00,Wunderground v.1.15,2013-04-26 11:58:00,
2013-04-26 07:00:00,46.0,39.2,29.94,SSW,204,6.0,11.0,77,0.00,,,0.00,Wunderground v.1.15,2013-04-26 12:00:00,
2013-04-26 07:02:00,46.0,39.2,29.94,South,187,5.0,11.0,77,0.00,,,0.00,Wunderground v.1.15,2013-04-26 12:02:00,
2013-04-26 07:04:00,46.1,39.3,29.94,South,177,5.0,11.0,77,0.00,,,0.00,Wunderground v.1.15,2013-04-26 12:04:00,
2013-04-26 07:06:00,46.1,39.3,29.94,SW,214,5.0,11.0,77,0.00,,,0.00,Wunderground v.1.15,2013-04-26 12:06:00,
2013-04-26 07:08:00,46.2,39.4,29.95,SSW,207,5.0,13.0,77,0.00,,,0.00,Wunderground v.1.15,2013-04-26 12:08:00,
2013-04-26 07:10:00,46.4,39.2,29.95,SSW,200,5.0,11.0,76,0.00,,,0.00,Wunderground v.1.15,2013-04-26 12:10:00,
2013-04-26 07:12:00,46.5,39.3,29.95,SSW,198,6.0,11.0,76,0.00,,,0.00,Wunderground v.1.15,2013-04-26 12:12:00,
2013-04-26 07:16:00,46.7,39.5,29.95,SSW,210,6.0,11.0,76,0.00,,,0.00,Wunderground v.1.15,2013-04-26 12:16:00,
2013-04-26 07:18:00,46.7,39.5,29.95,South,183,6.0,11.0,76,0.00,,,0.00,Wunderground v.1.15,2013-04-26 12:18:00,
2013-04-26 07:20:00,46.8,39.3,29.95,SSW,199,6.0,6.0,75,0.00,,,0.00,Wunderground v.1.15,2013-04-26 12:20:00,
2013-04-26 07:24:00,47.0,39.5,29.95,SSE,166,5.0,11.0,75,0.00,,,0.00,Wunderground v.1.15,2013-04-26 12:24:00,
2013-04-26 07:26:00,47.1,39.6,29.95,South,182,5.0,14.0,75,0.00,,,0.00,Wunderground v.1.15,2013-04-26 12:26:00,
2013-04-26 07:28:00,47.2,39.7,29.95,SSW,197,6.0,14.0,75,0.00,,,0.00,Wunderground v.1.15,2013-04-26 12:28:00,
2013-04-26 07:32:00,47.3,39.8,29.95,SSW,208,6.0,11.0,75,0.00,,,0.00,Wunderground v.1.15,2013-04-26 12:32:00,
2013-04-26 07:34:00,47.3,39.4,29.95,SSW,193,6.0,11.0,74,0.00,,,0.00,Wunderground v.1.15,2013-04-26 12:34:00,
2013-04-26 07:36:00,47.4,39.5,29.95,SSW,197,7.0,11.0,74,0.00,,,0.00,Wunderground v.1.15,2013-04-26 12:36:00,
2013-04-26 07:40:00,47.6,39.7,29.95,SSW,198,7.0,7.0,74,0.00,,,0.00,Wunderground v.1.15,2013-04-26 12:40:00,
2013-04-26 07:42:00,47.7,39.8,29.95,SE,127,7.0,11.0,74,0.00,,,0.00,Wunderground v.1.15,2013-04-26 12:42:00,
2013-04-26 07:46:00,47.9,40.0,29.95,South,183,7.0,11.0,74,0.00,,,0.00,Wunderground v.1.15,2013-04-26 12:46:00,
2013-04-26 07:48:00,48.0,40.1,29.95,South,185,6.0,11.0,74,0.00,,,0.00,Wunderground v.1.15,2013-04-26 12:48:00,
2013-04-26 07:50:00,48.1,40.2,29.96,SW,215,6.0,11.0,74,0.00,,,0.00,Wunderground v.1.15,2013-04-26 12:50:00,
2013-04-26 07:52:00,48.1,39.9,29.96,SW,217,6.0,11.0,73,0.00,,,0.00,Wunderground v.1.15,2013-04-26 12:52:00,
2013-04-26 07:54:00,48.3,40.0,29.96,SE,138,6.0,11.0,73,0.00,,,0.00,Wunderground v.1.15,2013-04-26 12:54:00,
2013-04-26 07:56:00,48.5,40.2,29.96,SSW,200,6.0,11.0,73,0.00,,,0.00,Wunderground v.1.15,2013-04-26 12:56:00,
2013-04-26 08:00:00,48.8,40.5,29.96,South,174,6.0,11.0,73,0.00,,,0.00,Wunderground v.1.15,2013-04-26 13:00:00,
2013-04-26 08:02:00,48.9,40.6,29.96,South,181,5.0,11.0,73,0.00,,,0.00,Wunderground v.1.15,2013-04-26 13:02:00,
2013-04-26 08:06:00,49.2,40.6,29.96,SSW,211,5.0,11.0,72,0.00,,,0.00,Wunderground v.1.15,2013-04-26 13:06:00,
2013-04-26 08:08:00,49.3,40.3,29.96,South,187,6.0,11.0,71,0.00,,,0.00,Wunderground v.1.15,2013-04-26 13:08:00,
2013-04-26 08:14:00,49.7,40.7,29.96,SSE,155,7.0,11.0,71,0.00,,,0.00,Wunderground v.1.15,2013-04-26 13:14:00,
2013-04-26 08:16:00,49.7,40.7,29.96,SW,229,8.0,11.0,71,0.00,,,0.00,Wunderground v.1.15,2013-04-26 13:16:00,
2013-04-26 08:18:00,49.7,40.7,29.96,SSW,203,8.0,11.0,71,0.00,,,0.00,Wunderground v.1.15,2013-04-26 13:18:00,
2013-04-26 08:20:00,49.9,40.5,29.96,SW,232,8.0,11.0,70,0.00,,,0.00,Wunderground v.1.15,2013-04-26 13:20:00,
2013-04-26 08:22:00,50.1,40.7,29.96,SW,221,8.0,11.0,70,0.00,,,0.00,Wunderground v.1.15,2013-04-26 13:22:00,
2013-04-26 08:24:00,50.3,40.5,29.96,SSW,195,8.0,11.0,69,0.00,,,0.00,Wunderground v.1.15,2013-04-26 13:24:00,
2013-04-26 08:26:00,50.5,40.7,29.96,SW,222,8.0,11.0,69,0.00,,,0.00,Wunderground v.1.15,2013-04-26 13:26:00,
2013-04-26 08:28:00,50.8,41.4,29.96,SW,226,7.0,11.0,70,0.00,,,0.00,Wunderground v.1.15,2013-04-26 13:28:00,
2013-04-26 08:30:00,51.0,41.2,29.96,SW,228,7.0,12.0,69,0.00,,,0.00,Wunderground v.1.15,2013-04-26 13:30:00,
2013-04-26 08:32:00,51.2,41.0,29.96,South,181,7.0,12.0,68,0.00,,,0.00,Wunderground v.1.15,2013-04-26 13:32:00,
2013-04-26 08:34:00,51.3,41.1,29.96,SSW,212,8.0,12.0,68,0.00,,,0.00,Wunderground v.1.15,2013-04-26 13:34:00,
2013-04-26 08:38:00,51.9,41.7,29.96,WSW,252,8.0,12.0,68,0.00,,,0.00,Wunderground v.1.15,2013-04-26 13:38:00,
2013-04-26 08:42:00,52.4,41.8,29.96,SSW,197,9.0,11.0,67,0.00,,,0.00,Wunderground v.1.15,2013-04-26 13:42:00,
2013-04-26 08:44:00,52.6,41.2,29.96,SSW,212,10.0,11.0,65,0.00,,,0.00,Wunderground v.1.15,2013-04-26 13:44:00,
2013-04-26 08:50:00,53.3,41.4,29.96,SW,226,10.0,14.0,64,0.00,,,0.00,Wunderground v.1.15,2013-04-26 13:50:00,
2013-04-26 08:52:00,53.4,41.1,29.96,SW,230,11.0,14.0,63,0.00,,,0.00,Wunderground v.1.15,2013-04-26 13:52:00,
2013-04-26 08:54:00,53.6,41.3,29.96,SW,214,11.0,14.0,63,0.00,,,0.00,Wunderground v.1.15,2013-04-26 13:54:00,
2013-04-26 08:56:00,53.8,41.5,29.96,SSW,210,11.0,14.0,63,0.00,,,0.00,Wunderground v.1.15,2013-04-26 13:56:00,
2013-04-26 08:58:00,54.0,41.7,29.96,SW,222,12.0,17.0,63,0.00,,,0.00,Wunderground v.1.15,2013-04-26 13:58:00,
2013-04-26 09:02:00,54.4,41.2,29.96,SW,224,12.0,14.0,61,0.00,,,0.00,Wunderground v.1.15,2013-04-26 14:02:00,
2013-04-26 09:06:00,54.7,41.5,29.96,SW,220,13.0,17.0,61,0.00,,,0.00,Wunderground v.1.15,2013-04-26 14:06:00,
2013-04-26 09:08:00,54.8,41.2,29.96,SW,223,14.0,22.0,60,0.00,,,0.00,Wunderground v.1.15,2013-04-26 14:08:00,
2013-04-26 09:12:00,55.1,41.5,29.96,SW,229,15.0,19.0,60,0.00,,,0.00,Wunderground v.1.15,2013-04-26 14:12:00,
2013-04-26 09:14:00,55.3,41.6,29.96,SW,233,15.0,19.0,60,0.00,,,0.00,Wunderground v.1.15,2013-04-26 14:14:00,
2013-04-26 09:20:00,55.7,42.0,29.96,SW,215,15.0,17.0,60,0.00,,,0.00,Wunderground v.1.15,2013-04-26 14:20:00,
2013-04-26 09:22:00,55.9,42.2,29.96,WSW,248,15.0,17.0,60,0.00,,,0.00,Wunderground v.1.15,2013-04-26 14:22:00,
2013-04-26 09:24:00,56.1,42.4,29.96,SW,228,16.0,17.0,60,0.00,,,0.00,Wunderground v.1.15,2013-04-26 14:24:00,
2013-04-26 09:26:00,56.4,42.7,29.96,SW,222,15.0,17.0,60,0.00,,,0.00,Wunderground v.1.15,2013-04-26 14:26:00,
2013-04-26 09:28:00,56.6,42.4,29.96,SW,217,14.0,17.0,59,0.00,,,0.00,Wunderground v.1.15,2013-04-26 14:28:00,
2013-04-26 09:32:00,57.0,42.8,29.96,SW,236,14.0,18.0,59,0.00,,,0.00,Wunderground v.1.15,2013-04-26 14:32:00,
2013-04-26 09:34:00,57.1,42.0,29.96,SW,235,14.0,18.0,57,0.00,,,0.00,Wunderground v.1.15,2013-04-26 14:34:00,
2013-04-26 09:36:00,57.2,42.5,29.96,WSW,242,14.0,18.0,58,0.00,,,0.00,Wunderground v.1.15,2013-04-26 14:36:00,
2013-04-26 09:40:00,57.4,42.3,29.97,SW,224,14.0,16.0,57,0.00,,,0.00,Wunderground v.1.15,2013-04-26 14:40:00,
2013-04-26 09:44:00,57.5,42.4,29.97,SW,217,14.0,16.0,57,0.00,,,0.00,Wunderground v.1.15,2013-04-26 14:44:00,
2013-04-26 09:48:00,57.7,42.6,29.97,WSW,248,14.0,16.0,57,0.00,,,0.00,Wunderground v.1.15,2013-04-26 14:48:00,
2013-04-26 09:50:00,57.9,41.8,29.97,WSW,250,15.0,17.0,55,0.00,,,0.00,Wunderground v.1.15,2013-04-26 14:50:00,
2013-04-26 09:54:00,58.0,42.4,29.97,SW,233,15.0,20.0,56,0.00,,,0.00,Wunderground v.1.15,2013-04-26 14:54:00,
2013-04-26 09:56:00,58.0,42.4,29.97,SW,233,15.0,20.0,56,0.00,,,0.00,Wunderground v.1.15,2013-04-26 14:56:00,
2013-04-26 10:00:00,58.2,42.6,29.97,WSW,238,15.0,16.0,56,0.00,,,0.00,Wunderground v.1.15,2013-04-26 15:00:00,
2013-04-26 10:02:00,58.0,41.9,29.97,SSW,212,15.0,16.0,55,0.00,,,0.00,Wunderground v.1.15,2013-04-26 15:02:00,
2013-04-26 10:04:00,58.2,43.0,29.97,WSW,239,14.0,16.0,57,0.00,,,0.00,Wunderground v.1.15,2013-04-26 15:04:00,
2013-04-26 10:08:00,58.3,42.7,29.97,WSW,238,14.0,16.0,56,0.00,,,0.00,Wunderground v.1.15,2013-04-26 15:08:00,
2013-04-26 10:10:00,58.4,42.3,29.97,WSW,245,14.0,14.0,55,0.00,,,0.00,Wunderground v.1.15,2013-04-26 15:10:00,
2013-04-26 10:14:00,58.8,42.7,29.97,West,273,14.0,15.0,55,0.00,,,0.00,Wunderground v.1.15,2013-04-26 15:14:00,
2013-04-26 10:16:00,58.8,42.7,29.97,SW,233,13.0,15.0,55,0.00,,,0.00,Wunderground v.1.15,2013-04-26 15:16:00,
2013-04-26 10:22:00,59.1,43.4,29.97,SSW,210,13.0,14.0,56,0.00,,,0.00,Wunderground v.1.15,2013-04-26 15:22:00,
2013-04-26 10:24:00,59.4,42.7,29.97,SW,218,13.0,14.0,54,0.00,,,0.00,Wunderground v.1.15,2013-04-26 15:24:00,
2013-04-26 10:26:00,59.4,43.2,29.98,SW,232,13.0,14.0,55,0.00,,,0.00,Wunderground v.1.15,2013-04-26 15:26:00,
2013-04-26 10:30:00,59.9,43.7,29.98,WSW,241,13.0,13.0,55,0.00,,,0.00,Wunderground v.1.15,2013-04-26 15:30:00,
2013-04-26 10:32:00,60.0,43.3,29.98,WSW,240,13.0,14.0,54,0.00,,,0.00,Wunderground v.1.15,2013-04-26 15:32:00,
2013-04-26 10:36:00,60.2,43.5,29.98,WSW,249,13.0,14.0,54,0.00,,,0.00,Wunderground v.1.15,2013-04-26 15:36:00,
2013-04-26 10:38:00,60.3,42.6,29.98,WSW,250,13.0,14.0,52,0.00,,,0.00,Wunderground v.1.15,2013-04-26 15:38:00,
2013-04-26 10:42:00,60.5,43.8,29.98,WSW,240,13.0,13.0,54,0.00,,,0.00,Wunderground v.1.15,2013-04-26 15:42:00,
2013-04-26 10:44:00,60.6,43.4,29.98,WSW,243,13.0,13.0,53,0.00,,,0.00,Wunderground v.1.15,2013-04-26 15:44:00,
2013-04-26 10:46:00,60.5,43.3,29.99,WSW,252,12.0,13.0,53,0.00,,,0.00,Wunderground v.1.15,2013-04-26 15:46:00,
2013-04-26 10:52:00,60.8,43.6,29.99,WSW,242,12.0,14.0,53,0.00,,,0.00,Wunderground v.1.15,2013-04-26 15:52:00,
2013-04-26 10:54:00,60.9,43.1,29.99,SW,226,12.0,14.0,52,0.00,,,0.00,Wunderground v.1.15,2013-04-26 15:54:00,
2013-04-26 10:58:00,61.6,44.8,29.99,SW,226,11.0,14.0,54,0.00,,,0.00,Wunderground v.1.15,2013-04-26 15:58:00,
2013-04-26 11:00:00,61.6,44.3,29.99,SSW,208,12.0,12.0,53,0.00,,,0.00,Wunderground v.1.15,2013-04-26 16:00:00,
2013-04-26 11:04:00,62.2,44.9,29.99,WSW,255,11.0,12.0,53,0.00,,,0.00,Wunderground v.1.15,2013-04-26 16:04:00,
2013-04-26 11:08:00,62.6,43.7,29.99,West,271,11.0,12.0,50,0.00,,,0.00,Wunderground v.1.15,2013-04-26 16:08:00,
2013-04-26 11:12:00,63.2,43.7,29.99,WSW,255,11.0,11.0,49,0.00,,,0.00,Wunderground v.1.15,2013-04-26 16:12:00,
2013-04-26 11:16:00,63.3,42.7,30.00,WSW,258,11.0,11.0,47,0.00,,,0.00,Wunderground v.1.15,2013-04-26 16:16:00,
2013-04-26 11:20:00,63.2,43.2,30.00,WSW,258,11.0,14.0,48,0.00,,,0.00,Wunderground v.1.15,2013-04-26 16:20:00,
2013-04-26 11:22:00,63.1,42.5,30.00,WSW,239,11.0,14.0,47,0.00,,,0.00,Wunderground v.1.15,2013-04-26 16:22:00,
2013-04-26 11:24:00,63.3,44.3,30.00,West,266,11.0,14.0,50,0.00,,,0.00,Wunderground v.1.15,2013-04-26 16:24:00,
2013-04-26 11:26:00,63.8,43.7,30.00,West,262,11.0,14.0,48,0.00,,,0.00,Wunderground v.1.15,2013-04-26 16:26:00,
2013-04-26 11:30:00,63.9,43.3,30.00,West,266,11.0,11.0,47,0.00,,,0.00,Wunderground v.1.15,2013-04-26 16:30:00,
2013-04-26 11:34:00,64.2,43.5,30.00,WSW,242,10.0,13.0,47,0.00,,,0.00,Wunderground v.1.15,2013-04-26 16:34:00,
2013-04-26 11:38:00,64.0,42.8,30.00,WSW,254,10.0,13.0,46,0.00,,,0.00,Wunderground v.1.15,2013-04-26 16:38:00,
2013-04-26 11:40:00,64.1,42.3,30.00,WSW,245,10.0,10.0,45,0.00,,,0.00,Wunderground v.1.15,2013-04-26 16:40:00,
2013-04-26 11:42:00,64.2,43.5,30.00,SW,227,10.0,12.0,47,0.00,,,0.00,Wunderground v.1.15,2013-04-26 16:42:00,
2013-04-26 11:44:00,64.3,43.1,30.00,WSW,238,10.0,12.0,46,0.00,,,0.00,Wunderground v.1.15,2013-04-26 16:44:00,
2013-04-26 11:46:00,64.2,43.0,30.00,West,259,10.0,12.0,46,0.00,,,0.00,Wunderground v.1.15,2013-04-26 16:46:00,
2013-04-26 11:52:00,64.5,42.7,30.01,SW,227,10.0,10.0,45,0.00,,,0.00,Wunderground v.1.15,2013-04-26 16:52:00,
2013-04-26 11:54:00,64.5,43.3,30.00,SW,231,9.0,11.0,46,0.00,,,0.00,Wunderground v.1.15,2013-04-26 16:54:00,
2013-04-26 11:56:00,64.6,43.3,30.00,WNW,293,9.0,11.0,46,0.00,,,0.00,Wunderground v.1.15,2013-04-26 16:56:00,
2013-04-26 11:58:00,64.6,43.9,30.00,WSW,257,9.0,11.0,47,0.00,,,0.00,Wunderground v.1.15,2013-04-26 16:58:00,
2013-04-26 12:02:00,65.2,43.9,30.00,WSW,252,8.0,11.0,46,0.00,,,0.00,Wunderground v.1.15,2013-04-26 17:02:00,
2013-04-26 12:04:00,65.4,42.3,30.01,WSW,246,8.0,11.0,43,0.00,,,0.00,Wunderground v.1.15,2013-04-26 17:04:00,
2013-04-26 12:08:00,65.5,43.6,30.01,West,278,8.0,11.0,45,0.00,,,0.00,Wunderground v.1.15,2013-04-26 17:08:00,
2013-04-26 12:12:00,65.7,43.8,30.01,West,266,8.0,10.0,45,0.00,,,0.00,Wunderground v.1.15,2013-04-26 17:12:00,
2013-04-26 12:16:00,66.0,43.5,30.00,West,274,8.0,10.0,44,0.00,,,0.00,Wunderground v.1.15,2013-04-26 17:16:00,
2013-04-26 12:18:00,66.1,42.3,30.01,West,264,8.0,10.0,42,0.00,,,0.00,Wunderground v.1.15,2013-04-26 17:18:00,
2013-04-26 12:22:00,66.3,42.5,30.00,West,276,8.0,12.0,42,0.00,,,0.00,Wunderground v.1.15,2013-04-26 17:22:00,
2013-04-26 12:26:00,66.3,43.7,30.00,WSW,257,7.0,12.0,44,0.00,,,0.00,Wunderground v.1.15,2013-04-26 17:26:00,
2013-04-26 12:28:00,66.6,44.0,30.00,SW,236,7.0,12.0,44,0.00,,,0.00,Wunderground v.1.15,2013-04-26 17:28:00,
2013-04-26 12:30:00,66.7,42.2,30.00,WSW,243,8.0,8.0,41,0.00,,,0.00,Wunderground v.1.15,2013-04-26 17:30:00,
2013-04-26 12:34:00,66.6,42.2,30.00,WSW,243,7.0,8.0,41,0.00,,,0.00,Wunderground v.1.15,2013-04-26 17:34:00,
2013-04-26 12:36:00,66.6,42.8,30.00,West,270,7.0,8.0,42,0.00,,,0.00,Wunderground v.1.15,2013-04-26 17:36:00,
2013-04-26 12:38:00,66.8,43.6,30.00,West,273,6.0,8.0,43,0.00,,,0.00,Wunderground v.1.15,2013-04-26 17:38:00,
2013-04-26 12:40:00,67.0,41.9,30.00,WSW,252,6.0,8.0,40,0.00,,,0.00,Wunderground v.1.15,2013-04-26 17:40:00,
2013-04-26 12:42:00,66.9,42.4,30.00,WSW,255,6.0,8.0,41,0.00,,,0.00,Wunderground v.1.15,2013-04-26 17:42:00,
2013-04-26 12:44:00,66.9,43.0,30.00,West,259,6.0,8.0,42,0.00,,,0.00,Wunderground v.1.15,2013-04-26 17:44:00,
2013-04-26 12:46:00,67.1,41.3,30.00,West,259,6.0,8.0,39,0.00,,,0.00,Wunderground v.1.15,2013-04-26 17:46:00,
2013-04-26 12:50:00,67.1,42.0,30.00,SSW,198,5.0,6.0,40,0.00,,,0.00,Wunderground v.1.15,2013-04-26 17:50:00,
2013-04-26 12:52:00,67.1,42.0,30.00,West,263,5.0,6.0,40,0.00,,,0.00,Wunderground v.1.15,2013-04-26 17:52:00,
2013-04-26 12:58:00,67.8,42.6,30.00,NW,313,6.0,7.0,40,0.00,,,0.00,Wunderground v.1.15,2013-04-26 17:58:00,
2013-04-26 13:00:00,67.8,41.9,30.00,NE,42,5.0,5.0,39,0.00,,,0.00,Wunderground v.1.15,2013-04-26 18:00:00,
2013-04-26 13:02:00,67.9,42.0,30.00,NNW,330,5.0,6.0,39,0.00,,,0.00,Wunderground v.1.15,2013-04-26 18:02:00,
2013-04-26 13:04:00,67.9,41.3,30.00,NNW,331,5.0,15.0,38,0.00,,,0.00,Wunderground v.1.15,2013-04-26 18:04:00,
2013-04-26 13:06:00,68.0,41.4,30.00,NW,325,4.0,15.0,38,0.00,,,0.00,Wunderground v.1.15,2013-04-26 18:06:00,
2013-04-26 13:08:00,68.0,41.4,30.00,WSW,243,4.0,15.0,38,0.00,,,0.00,Wunderground v.1.15,2013-04-26 18:08:00,
2013-04-26 13:14:00,68.3,41.0,30.00,North,9,5.0,15.0,37,0.00,,,0.00,Wunderground v.1.15,2013-04-26 18:14:00,
2013-04-26 13:16:00,68.4,41.1,30.00,WNW,300,5.0,15.0,37,0.00,,,0.00,Wunderground v.1.15,2013-04-26 18:16:00,
2013-04-26 13:20:00,68.7,40.7,30.00,West,277,5.0,15.0,36,0.00,,,0.00,Wunderground v.1.15,2013-04-26 18:20:00,
2013-04-26 13:22:00,69.2,41.1,30.00,WSW,239,5.0,15.0,36,0.00,,,0.00,Wunderground v.1.15,2013-04-26 18:22:00,
2013-04-26 13:28:00,69.0,40.2,30.00,NW,318,6.0,15.0,35,0.00,,,0.00,Wunderground v.1.15,2013-04-26 18:28:00,
2013-04-26 13:32:00,69.2,40.4,29.99,NNE,27,5.0,15.0,35,0.00,,,0.00,Wunderground v.1.15,2013-04-26 18:32:00,
2013-04-26 13:34:00,69.4,39.8,29.99,North,11,5.0,15.0,34,0.00,,,0.00,Wunderground v.1.15,2013-04-26 18:34:00,
2013-04-26 13:38:00,69.8,40.2,29.99,NNW,332,5.0,15.0,34,0.00,,,0.00,Wunderground v.1.15,2013-04-26 18:38:00,
2013-04-26 13:42:00,70.0,41.1,29.99,WNW,285,5.0,15.0,35,0.00,,,0.00,Wunderground v.1.15,2013-04-26 18:42:00,
2013-04-26 13:46:00,70.5,40.0,29.99,NNW,347,6.0,15.0,33,0.00,,,0.00,Wunderground v.1.15,2013-04-26 18:46:00,
2013-04-26 13:48:00,70.3,39.8,29.99,WNW,291,6.0,15.0,33,0.00,,,0.00,Wunderground v.1.15,2013-04-26 18:48:00,
2013-04-26 13:50:00,70.3,38.2,29.99,NNW,333,7.0,7.0,31,0.00,,,0.00,Wunderground v.1.15,2013-04-26 18:50:00,
2013-04-26 13:54:00,70.2,38.1,29.99,NNW,335,6.0,15.0,31,0.00,,,0.00,Wunderground v.1.15,2013-04-26 18:54:00,
2013-04-26 13:56:00,70.4,38.3,29.99,NE,34,6.0,15.0,31,0.00,,,0.00,Wunderground v.1.15,2013-04-26 18:56:00,
2013-04-26 14:00:00,70.5,39.2,29.99,North,9,5.0,5.0,32,0.00,,,0.00,Wunderground v.1.15,2013-04-26 19:00:00,
2013-04-26 14:02:00,70.3,39.0,29.99,NW,321,5.0,6.0,32,0.00,,,0.00,Wunderground v.1.15,2013-04-26 19:02:00,
2013-04-26 14:04:00,70.3,39.8,29.99,North,360,6.0,15.0,33,0.00,,,0.00,Wunderground v.1.15,2013-04-26 19:04:00,
2013-04-26 14:08:00,70.4,39.9,29.99,NW,308,5.0,15.0,33,0.00,,,0.00,Wunderground v.1.15,2013-04-26 19:08:00,
2013-04-26 14:10:00,70.4,39.9,29.99,NW,307,4.0,15.0,33,0.00,,,0.00,Wunderground v.1.15,2013-04-26 19:10:00,
2013-04-26 14:12:00,70.3,39.8,29.99,NW,308,4.0,15.0,33,0.00,,,0.00,Wunderground v.1.15,2013-04-26 19:12:00,
2013-04-26 14:16:00,70.5,38.4,29.99,WNW,287,5.0,15.0,31,0.00,,,0.00,Wunderground v.1.15,2013-04-26 19:16:00,
2013-04-26 14:22:00,70.5,39.2,29.98,North,6,3.0,15.0,32,0.00,,,0.00,Wunderground v.1.15,2013-04-26 19:22:00,
2013-04-26 14:24:00,70.8,39.5,29.98,North,353,3.0,15.0,32,0.00,,,0.00,Wunderground v.1.15,2013-04-26 19:24:00,
2013-04-26 14:26:00,71.1,40.5,29.98,North,8,2.0,15.0,33,0.00,,,0.00,Wunderground v.1.15,2013-04-26 19:26:00,
2013-04-26 14:28:00,71.6,41.7,29.98,SSE,159,1.0,15.0,34,0.00,,,0.00,Wunderground v.1.15,2013-04-26 19:28:00,
2013-04-26 14:30:00,71.9,42.0,29.98,SE,136,1.0,15.0,34,0.00,,,0.00,Wunderground v.1.15,2013-04-26 19:30:00,
2013-04-26 14:32:00,72.2,41.5,29.98,SSW,204,1.0,15.0,33,0.00,,,0.00,Wunderground v.1.15,2013-04-26 19:32:00,
2013-04-26 14:34:00,-999.9,-99.9,29.98,WSW,255,1.0,15.0,34,0.00,,,0.00,Wunderground v.1.15,2013-04-26 19:34:00,
2013-04-26 14:36:00,-999.9,-99.9,29.98,North,352,2.0,15.0,255,0.00,,,0.00,Wunderground v.1.15,2013-04-26 19:36:00,
2013-04-26 14:38:00,-999.9,-99.9,29.98,South,184,2.0,15.0,255,0.00,,,0.00,Wunderground v.1.15,2013-04-26 19:38:00,
2013-04-26 14:42:00,-999.9,-99.9,29.98,WSW,242,3.0,15.0,79,0.00,,,0.00,Wunderground v.1.15,2013-04-26 19:42:00,
2013-04-26 14:44:00,72.0,38.9,29.98,NW,304,3.0,15.0,30,0.00,,,0.00,Wunderground v.1.15,2013-04-26 19:44:00,
2013-04-26 14:48:00,72.2,39.9,29.98,NNW,334,4.0,15.0,31,0.00,,,0.00,Wunderground v.1.15,2013-04-26 19:48:00,
2013-04-26 14:50:00,72.4,39.2,29.98,NW,324,5.0,15.0,30,0.00,,,0.00,Wunderground v.1.15,2013-04-26 19:50:00,
2013-04-26 14:56:00,71.8,37.8,29.98,NNW,343,7.0,15.0,29,0.00,,,0.00,Wunderground v.1.15,2013-04-26 19:56:00,
2013-04-26 14:58:00,71.6,37.6,29.98,NE,51,6.0,15.0,29,0.00,,,0.00,Wunderground v.1.15,2013-04-26 19:58:00,
2013-04-26 15:00:00,71.5,37.6,29.98,West,274,5.0,15.0,29,0.00,,,0.00,Wunderground v.1.15,2013-04-26 20:00:00,
2013-04-26 15:04:00,71.4,37.5,29.98,NW,304,4.0,15.0,29,0.00,,,0.00,Wunderground v.1.15,2013-04-26 20:04:00,
2013-04-26 15:10:00,72.2,39.9,29.98,NNW,333,4.0,15.0,31,0.00,,,0.00,Wunderground v.1.15,2013-04-26 20:10:00,
2013-04-26 15:14:00,72.3,40.0,29.98,NNW,343,6.0,15.0,31,0.00,,,0.00,Wunderground v.1.15,2013-04-26 20:14:00,
2013-04-26 15:16:00,72.5,38.4,29.98,West,280,6.0,15.0,29,0.00,,,0.00,Wunderground v.1.15,2013-04-26 20:16:00,
2013-04-26 15:22:00,72.4,38.3,29.98,WNW,295,5.0,15.0,29,0.00,,,0.00,Wunderground v.1.15,2013-04-26 20:22:00,
2013-04-26 15:24:00,72.2,38.2,29.98,WNW,293,5.0,15.0,29,0.00,,,0.00,Wunderground v.1.15,2013-04-26 20:24:00,
2013-04-26 15:26:00,72.4,40.0,29.98,NW,321,5.0,15.0,31,0.00,,,0.00,Wunderground v.1.15,2013-04-26 20:26:00,
2013-04-26 15:30:00,72.4,39.2,29.98,WNW,285,5.0,5.0,30,0.00,,,0.00,Wunderground v.1.15,2013-04-26 20:30:00,
2013-04-26 15:32:00,72.5,39.3,29.98,South,180,4.0,15.0,30,0.00,,,0.00,Wunderground v.1.15,2013-04-26 20:32:00,
2013-04-26 15:34:00,72.7,39.5,29.98,NW,321,3.0,15.0,30,0.00,,,0.00,Wunderground v.1.15,2013-04-26 20:34:00,
2013-04-26 15:38:00,72.6,38.5,29.98,WNW,297,4.0,15.0,29,0.00,,,0.00,Wunderground v.1.15,2013-04-26 20:38:00,
2013-04-26 15:40:00,72.3,38.2,29.98,WNW,291,4.0,15.0,29,0.00,,,0.00,Wunderground v.1.15,2013-04-26 20:40:00,
2013-04-26 15:42:00,72.0,38.9,29.97,WSW,252,4.0,15.0,30,0.00,,,0.00,Wunderground v.1.15,2013-04-26 20:42:00,
2013-04-26 15:44:00,72.1,39.8,29.97,SSW,194,4.0,15.0,31,0.00,,,0.00,Wunderground v.1.15,2013-04-26 20:44:00,
2013-04-26 15:46:00,72.1,39.8,29.97,West,279,3.0,15.0,31,0.00,,,0.00,Wunderground v.1.15,2013-04-26 20:46:00,
2013-04-26 15:48:00,72.3,40.0,29.97,WNW,296,3.0,15.0,31,0.00,,,0.00,Wunderground v.1.15,2013-04-26 20:48:00,
2013-04-26 15:52:00,72.6,39.4,29.97,NW,326,4.0,15.0,30,0.00,,,0.00,Wunderground v.1.15,2013-04-26 20:52:00,
2013-04-26 15:54:00,72.5,40.1,29.97,NW,314,5.0,15.0,31,0.00,,,0.00,Wunderground v.1.15,2013-04-26 20:54:00,
2013-04-26 15:58:00,72.4,39.2,29.97,NNE,22,6.0,15.0,30,0.00,,,0.00,Wunderground v.1.15,2013-04-26 20:58:00,
2013-04-26 16:00:00,72.4,40.0,29.97,NW,321,6.0,6.0,31,0.00,,,0.00,Wunderground v.1.15,2013-04-26 21:00:00,
2013-04-26 16:02:00,72.8,39.5,29.97,NNW,328,6.0,15.0,30,0.00,,,0.00,Wunderground v.1.15,2013-04-26 21:02:00,
2013-04-26 16:04:00,73.0,39.7,29.97,NNW,328,5.0,15.0,30,0.00,,,0.00,Wunderground v.1.15,2013-04-26 21:04:00,
2013-04-26 16:06:00,73.0,39.7,29.97,NNE,12,5.0,15.0,30,0.00,,,0.00,Wunderground v.1.15,2013-04-26 21:06:00,
2013-04-26 16:12:00,72.9,38.8,29.97,NNW,330,6.0,7.0,29,0.00,,,0.00,Wunderground v.1.15,2013-04-26 21:12:00,
2013-04-26 16:14:00,72.8,38.7,29.97,NW,318,6.0,8.0,29,0.00,,,0.00,Wunderground v.1.15,2013-04-26 21:14:00,
2013-04-26 16:16:00,72.7,38.6,29.97,NW,304,7.0,15.0,29,0.00,,,0.00,Wunderground v.1.15,2013-04-26 21:16:00,
2013-04-26 16:20:00,72.6,39.4,29.97,NNW,340,6.0,15.0,30,0.00,,,0.00,Wunderground v.1.15,2013-04-26 21:20:00,
2013-04-26 16:22:00,72.5,38.4,29.97,North,353,6.0,15.0,29,0.00,,,0.00,Wunderground v.1.15,2013-04-26 21:22:00,
2013-04-26 16:24:00,72.4,39.2,29.97,NE,35,6.0,15.0,30,0.00,,,0.00,Wunderground v.1.15,2013-04-26 21:24:00,
2013-04-26 16:30:00,72.1,38.9,29.97,West,277,5.0,5.0,30,0.00,,,0.00,Wunderground v.1.15,2013-04-26 21:30:00,
2013-04-26 16:32:00,72.2,39.9,29.97,NNE,18,5.0,6.0,31,0.00,,,0.00,Wunderground v.1.15,2013-04-26 21:32:00,
2013-04-26 16:34:00,72.3,40.0,29.97,WNW,302,5.0,8.0,31,0.00,,,0.00,Wunderground v.1.15,2013-04-26 21:34:00,
2013-04-26 16:36:00,72.4,40.0,29.97,NW,319,5.0,15.0,31,0.00,,,0.00,Wunderground v.1.15,2013-04-26 21:36:00,
2013-04-26 16:38:00,72.6,40.2,29.97,NNW,345,6.0,15.0,31,0.00,,,0.00,Wunderground v.1.15,2013-04-26 21:38:00,
2013-04-26 16:42:00,72.6,39.4,29.98,NNW,340,6.0,15.0,30,0.00,,,0.00,Wunderground v.1.15,2013-04-26 21:42:00,
2013-04-26 16:44:00,72.6,40.2,29.98,NNW,338,6.0,15.0,31,0.00,,,0.00,Wunderground v.1.15,2013-04-26 21:44:00,
2013-04-26 16:48:00,72.5,38.4,29.97,NNE,16,5.0,15.0,29,0.00,,,0.00,Wunderground v.1.15,2013-04-26 21:48:00,
2013-04-26 16:50:00,72.5,39.3,29.98,NE,41,5.0,5.0,30,0.00,,,0.00,Wunderground v.1.15,2013-04-26 21:50:00,
2013-04-26 16:54:00,72.9,38.8,29.98,NW,314,5.0,15.0,29,0.00,,,0.00,Wunderground v.1.15,2013-04-26 21:54:00,
2013-04-26 16:56:00,72.7,38.6,29.98,NNW,328,5.0,15.0,29,0.00,,,0.00,Wunderground v.1.15,2013-04-26 21:56:00,
2013-04-26 17:00:00,72.4,39.2,29.98,NW,316,4.0,4.0,30,0.00,,,0.00,Wunderground v.1.15,2013-04-26 22:00:00,
2013-04-26 17:06:00,72.7,38.6,29.97,NNW,337,3.0,15.0,29,0.00,,,0.00,Wunderground v.1.15,2013-04-26 22:06:00,
2013-04-26 17:10:00,72.6,39.4,29.98,North,5,5.0,15.0,30,0.00,,,0.00,Wunderground v.1.15,2013-04-26 22:10:00,
2013-04-26 17:12:00,72.6,38.5,29.98,WNW,300,5.0,15.0,29,0.00,,,0.00,Wunderground v.1.15,2013-04-26 22:12:00,
2013-04-26 17:18:00,72.1,37.2,29.98,WNW,298,6.0,15.0,28,0.00,,,0.00,Wunderground v.1.15,2013-04-26 22:18:00,
2013-04-26 17:20:00,72.0,37.1,29.98,WNW,289,5.0,5.0,28,0.00,,,0.00,Wunderground v.1.15,2013-04-26 22:20:00,
2013-04-26 17:22:00,72.1,38.1,29.98,SW,224,4.0,15.0,29,0.00,,,0.00,Wunderground v.1.15,2013-04-26 22:22:00,
2013-04-26 17:26:00,72.2,38.2,29.98,NW,319,4.0,15.0,29,0.00,,,0.00,Wunderground v.1.15,2013-04-26 22:26:00,
2013-04-26 17:28:00,72.4,39.2,29.98,WNW,296,4.0,15.0,30,0.00,,,0.00,Wunderground v.1.15,2013-04-26 22:28:00,
2013-04-26 17:30:00,72.5,37.5,29.98,NW,304,5.0,15.0,28,0.00,,,0.00,Wunderground v.1.15,2013-04-26 22:30:00,
2013-04-26 17:32:00,72.3,37.4,29.98,West,281,6.0,15.0,28,0.00,,,0.00,Wunderground v.1.15,2013-04-26 22:32:00,
2013-04-26 17:36:00,72.2,37.3,29.98,NW,305,5.0,15.0,28,0.00,,,0.00,Wunderground v.1.15,2013-04-26 22:36:00,
2013-04-26 17:38:00,72.2,37.3,29.98,West,277,6.0,15.0,28,0.00,,,0.00,Wunderground v.1.15,2013-04-26 22:38:00,
2013-04-26 17:40:00,72.0,37.1,29.98,WSW,255,6.0,6.0,28,0.00,,,0.00,Wunderground v.1.15,2013-04-26 22:40:00,
2013-04-26 17:42:00,71.9,37.9,29.98,WSW,240,5.0,15.0,29,0.00,,,0.00,Wunderground v.1.15,2013-04-26 22:42:00,
2013-04-26 17:46:00,72.1,38.1,29.98,NW,311,5.0,15.0,29,0.00,,,0.00,Wunderground v.1.15,2013-04-26 22:46:00,
2013-04-26 17:48:00,72.1,38.1,29.98,NW,319,5.0,15.0,29,0.00,,,0.00,Wunderground v.1.15,2013-04-26 22:48:00,
2013-04-26 17:52:00,72.0,37.1,29.98,NNW,330,5.0,15.0,28,0.00,,,0.00,Wunderground v.1.15,2013-04-26 22:52:00,
2013-04-26 17:54:00,71.9,37.0,29.98,North,5,6.0,15.0,28,0.00,,,0.00,Wunderground v.1.15,2013-04-26 22:54:00,
2013-04-26 17:56:00,71.9,37.0,29.98,North,349,6.0,15.0,28,0.00,,,0.00,Wunderground v.1.15,2013-04-26 22:56:00,
2013-04-26 17:58:00,71.9,37.0,29.98,NNW,340,5.0,15.0,28,0.00,,,0.00,Wunderground v.1.15,2013-04-26 22:58:00,
2013-04-26 18:02:00,71.8,36.9,29.98,NW,313,5.0,15.0,28,0.00,,,0.00,Wunderground v.1.15,2013-04-26 23:02:00,
2013-04-26 18:04:00,71.8,37.8,29.98,NW,321,5.0,15.0,29,0.00,,,0.00,Wunderground v.1.15,2013-04-26 23:04:00,
2013-04-26 18:06:00,71.8,37.8,29.98,NNW,328,6.0,15.0,29,0.00,,,0.00,Wunderground v.1.15,2013-04-26 23:06:00,
2013-04-26 18:08:00,71.7,37.7,29.98,NNW,328,6.0,15.0,29,0.00,,,0.00,Wunderground v.1.15,2013-04-26 23:08:00,
2013-04-26 18:10:00,71.6,37.6,29.98,NNW,335,7.0,15.0,29,0.00,,,0.00,Wunderground v.1.15,2013-04-26 23:10:00,
2013-04-26 18:12:00,71.6,37.6,29.98,NW,323,8.0,15.0,29,0.00,,,0.00,Wunderground v.1.15,2013-04-26 23:12:00,
2013-04-26 18:14:00,71.7,37.7,29.98,NW,307,8.0,15.0,29,0.00,,,0.00,Wunderground v.1.15,2013-04-26 23:14:00,
2013-04-26 18:18:00,71.6,37.6,29.98,NW,316,8.0,15.0,29,0.00,,,0.00,Wunderground v.1.15,2013-04-26 23:18:00,
2013-04-26 18:20:00,71.5,36.7,29.98,NNW,340,8.0,8.0,28,0.00,,,0.00,Wunderground v.1.15,2013-04-26 23:20:00,
2013-04-26 18:22:00,71.5,36.7,29.98,WNW,302,7.0,15.0,28,0.00,,,0.00,Wunderground v.1.15,2013-04-26 23:22:00,
2013-04-26 18:24:00,71.4,36.6,29.98,NW,305,6.0,15.0,28,0.00,,,0.00,Wunderground v.1.15,2013-04-26 23:24:00,
2013-04-26 18:26:00,71.4,37.5,29.98,WNW,302,6.0,15.0,29,0.00,,,0.00,Wunderground v.1.15,2013-04-26 23:26:00,
2013-04-26 18:28:00,71.5,37.6,29.98,NNW,338,5.0,15.0,29,0.00,,,0.00,Wunderground v.1.15,2013-04-26 23:28:00,
2013-04-26 18:30:00,71.5,37.6,29.98,NW,319,4.0,15.0,29,0.00,,,0.00,Wunderground v.1.15,2013-04-26 23:30:00,
2013-04-26 18:34:00,71.5,38.4,29.98,NW,305,5.0,15.0,30,0.00,,,0.00,Wunderground v.1.15,2013-04-26 23:34:00,
2013-04-26 18:36:00,71.4,39.2,29.98,NNE,20,5.0,15.0,31,0.00,,,0.00,Wunderground v.1.15,2013-04-26 23:36:00,
2013-04-26 18:38:00,71.3,38.2,29.99,NE,48,6.0,15.0,30,0.00,,,0.00,Wunderground v.1.15,2013-04-26 23:38:00,
2013-04-26 18:42:00,70.8,38.7,29.99,NNW,336,7.0,15.0,31,0.00,,,0.00,Wunderground v.1.15,2013-04-26 23:42:00,
2013-04-26 18:44:00,70.7,38.6,29.99,NNW,343,7.0,15.0,31,0.00,,,0.00,Wunderground v.1.15,2013-04-26 23:44:00,
2013-04-26 18:46:00,70.8,38.7,29.99,North,6,7.0,15.0,31,0.00,,,0.00,Wunderground v.1.15,2013-04-26 23:46:00,
2013-04-26 18:50:00,70.5,37.6,29.99,NNW,340,7.0,7.0,30,0.00,,,0.00,Wunderground v.1.15,2013-04-26 23:50:00,
2013-04-26 18:54:00,70.1,37.2,29.99,North,4,7.0,11.0,30,0.00,,,0.00,Wunderground v.1.15,2013-04-26 23:54:00,
2013-04-26 19:06:00,68.9,37.8,29.99,NNW,345,9.0,15.0,32,0.00,,,0.00,Wunderground v.1.15,2013-04-27 00:06:00,
2013-04-26 19:08:00,68.7,37.6,29.99,NNW,338,10.0,15.0,32,0.00,,,0.00,Wunderground v.1.15,2013-04-27 00:08:00,
2013-04-26 19:10:00,68.5,37.5,29.99,NNW,328,10.0,15.0,32,0.00,,,0.00,Wunderground v.1.15,2013-04-27 00:10:00,
2013-04-26 19:12:00,68.4,37.4,29.99,NNE,12,10.0,15.0,32,0.00,,,0.00,Wunderground v.1.15,2013-04-27 00:12:00,
2013-04-26 19:14:00,68.3,38.1,29.99,NNW,335,9.0,15.0,33,0.00,,,0.00,Wunderground v.1.15,2013-04-27 00:14:00,
2013-04-26 19:16:00,68.1,39.4,30.00,NW,324,9.0,15.0,35,0.00,,,0.00,Wunderground v.1.15,2013-04-27 00:16:00,
2013-04-26 19:20:00,67.7,39.0,30.00,NW,321,8.0,8.0,35,0.00,,,0.00,Wunderground v.1.15,2013-04-27 00:20:00,
2013-04-26 19:22:00,67.6,39.0,30.00,NNW,343,8.0,10.0,35,0.00,,,0.00,Wunderground v.1.15,2013-04-27 00:22:00,
2013-04-26 19:24:00,67.4,38.8,30.00,NNW,330,8.0,15.0,35,0.00,,,0.00,Wunderground v.1.15,2013-04-27 00:24:00,
2013-04-26 19:28:00,67.1,38.5,30.00,NNW,337,9.0,15.0,35,0.00,,,0.00,Wunderground v.1.15,2013-04-27 00:28:00,
2013-04-26 19:30:00,66.9,38.3,30.00,NNW,345,9.0,15.0,35,0.00,,,0.00,Wunderground v.1.15,2013-04-27 00:30:00,
2013-04-26 19:32:00,66.8,39.0,30.00,NNW,345,9.0,15.0,36,0.00,,,0.00,Wunderground v.1.15,2013-04-27 00:32:00,
2013-04-26 19:38:00,66.2,38.4,30.00,NNW,333,9.0,15.0,36,0.00,,,0.00,Wunderground v.1.15,2013-04-27 00:38:00,
2013-04-26 19:40:00,66.0,38.3,30.00,NNW,332,9.0,15.0,36,0.00,,,0.00,Wunderground v.1.15,2013-04-27 00:40:00,
2013-04-26 19:44:00,65.6,37.9,30.00,NNW,345,9.0,15.0,36,0.00,,,0.00,Wunderground v.1.15,2013-04-27 00:44:00,
2013-04-26 19:46:00,65.3,37.6,30.01,NNW,339,9.0,15.0,36,0.00,,,0.00,Wunderground v.1.15,2013-04-27 00:46:00,
2013-04-26 19:52:00,64.3,37.5,30.01,North,357,7.0,15.0,37,0.00,,,0.00,Wunderground v.1.15,2013-04-27 00:52:00,
2013-04-26 19:54:00,64.0,37.2,30.01,NW,322,7.0,15.0,37,0.00,,,0.00,Wunderground v.1.15,2013-04-27 00:54:00,
2013-04-26 19:56:00,63.7,36.9,30.01,NNW,339,7.0,15.0,37,0.00,,,0.00,Wunderground v.1.15,2013-04-27 00:56:00,
2013-04-26 20:00:00,63.1,37.1,30.01,NNW,335,7.0,15.0,38,0.00,,,0.00,Wunderground v.1.15,2013-04-27 01:00:00,
2013-04-26 20:02:00,62.9,36.9,30.01,North,356,7.0,15.0,38,0.00,,,0.00,Wunderground v.1.15,2013-04-27 01:02:00,
2013-04-26 20:06:00,62.5,37.2,30.01,NNW,337,7.0,15.0,39,0.00,,,0.00,Wunderground v.1.15,2013-04-27 01:06:00,
2013-04-26 20:08:00,62.3,37.7,30.01,NW,325,7.0,15.0,40,0.00,,,0.00,Wunderground v.1.15,2013-04-27 01:08:00,
2013-04-26 20:14:00,61.6,37.7,30.01,NNW,342,7.0,15.0,41,0.00,,,0.00,Wunderground v.1.15,2013-04-27 01:14:00,
2013-04-26 20:16:00,61.4,38.7,30.01,NNW,338,7.0,15.0,43,0.00,,,0.00,Wunderground v.1.15,2013-04-27 01:16:00,
2013-04-26 20:19:00,60.7,38.6,30.01,NW,325,6.0,6.0,44,0.00,,,0.00,Wunderground v.1.15,2013-04-27 01:19:00,
2013-04-26 20:22:00,60.1,38.7,30.01,NNW,335,6.0,7.0,45,0.00,,,0.00,Wunderground v.1.15,2013-04-27 01:22:00,
2013-04-26 20:24:00,59.9,39.1,30.01,NNW,327,6.0,15.0,46,0.00,,,0.00,Wunderground v.1.15,2013-04-27 01:24:00,
2013-04-26 20:26:00,59.8,39.0,30.01,NNW,330,6.0,15.0,46,0.00,,,0.00,Wunderground v.1.15,2013-04-27 01:26:00,
2013-04-26 20:28:00,59.7,38.9,30.01,NNW,332,7.0,15.0,46,0.00,,,0.00,Wunderground v.1.15,2013-04-27 01:28:00,
2013-04-26 20:30:00,59.6,38.8,30.01,NNW,330,7.0,15.0,46,0.00,,,0.00,Wunderground v.1.15,2013-04-27 01:30:00,
2013-04-26 20:34:00,59.4,39.1,30.01,NNW,332,7.0,15.0,47,0.00,,,0.00,Wunderground v.1.15,2013-04-27 01:34:00,
2013-04-26 20:36:00,59.4,39.1,30.02,North,1,7.0,15.0,47,0.00,,,0.00,Wunderground v.1.15,2013-04-27 01:36:00,
2013-04-26 20:40:00,59.2,39.5,30.02,North,354,8.0,15.0,48,0.00,,,0.00,Wunderground v.1.15,2013-04-27 01:40:00,
2013-04-26 20:42:00,59.3,39.6,30.01,North,349,8.0,15.0,48,0.00,,,0.00,Wunderground v.1.15,2013-04-27 01:42:00,
2013-04-26 20:44:00,59.2,39.5,30.01,North,355,8.0,15.0,48,0.00,,,0.00,Wunderground v.1.15,2013-04-27 01:44:00,
2013-04-26 20:46:00,59.1,39.4,30.02,NNW,348,8.0,15.0,48,0.00,,,0.00,Wunderground v.1.15,2013-04-27 01:46:00,
2013-04-26 20:50:00,59.1,38.9,30.02,North,349,8.0,15.0,47,0.00,,,0.00,Wunderground v.1.15,2013-04-27 01:50:00,
2013-04-26 20:52:00,59.1,39.4,30.02,NNW,330,8.0,15.0,48,0.00,,,0.00,Wunderground v.1.15,2013-04-27 01:52:00,
2013-04-26 20:56:00,58.6,39.5,30.02,NNE,25,8.0,15.0,49,0.00,,,0.00,Wunderground v.1.15,2013-04-27 01:56:00,
2013-04-26 21:02:00,57.1,40.1,30.02,North,11,6.0,15.0,53,0.00,,,0.00,Wunderground v.1.15,2013-04-27 02:02:00,
2013-04-26 21:04:00,56.9,39.4,30.02,North,354,6.0,15.0,52,0.00,,,0.00,Wunderground v.1.15,2013-04-27 02:04:00,
2013-04-26 21:08:00,56.9,38.4,30.02,NNW,348,6.0,15.0,50,0.00,,,0.00,Wunderground v.1.15,2013-04-27 02:08:00,
2013-04-26 21:10:00,57.0,38.5,30.02,North,9,6.0,6.0,50,0.00,,,0.00,Wunderground v.1.15,2013-04-27 02:10:00,
2013-04-26 21:12:00,57.1,38.6,30.03,North,9,6.0,7.0,50,0.00,,,0.00,Wunderground v.1.15,2013-04-27 02:12:00,
2013-04-26 21:14:00,57.2,38.2,30.03,North,354,6.0,15.0,49,0.00,,,0.00,Wunderground v.1.15,2013-04-27 02:14:00,
2013-04-26 21:16:00,57.2,38.7,30.03,North,6,6.0,15.0,50,0.00,,,0.00,Wunderground v.1.15,2013-04-27 02:16:00,
2013-04-26 21:18:00,57.1,39.1,30.03,NNE,16,6.0,15.0,51,0.00,,,0.00,Wunderground v.1.15,2013-04-27 02:18:00,
2013-04-26 21:22:00,56.6,39.2,30.03,NNE,21,5.0,15.0,52,0.00,,,0.00,Wunderground v.1.15,2013-04-27 02:22:00,
2013-04-26 21:24:00,56.3,39.4,30.03,NNE,23,5.0,15.0,53,0.00,,,0.00,Wunderground v.1.15,2013-04-27 02:24:00,
2013-04-26 21:28:00,55.4,39.0,30.03,NNE,28,5.0,15.0,54,0.00,,,0.00,Wunderground v.1.15,2013-04-27 02:28:00,
2013-04-26 21:30:00,55.0,39.1,30.03,NE,38,5.0,15.0,55,0.00,,,0.00,Wunderground v.1.15,2013-04-27 02:30:00,
2013-04-26 21:32:00,54.7,38.8,30.03,NNE,29,5.0,15.0,55,0.00,,,0.00,Wunderground v.1.15,2013-04-27 02:32:00,
2013-04-26 21:34:00,54.4,39.0,30.03,NNE,28,5.0,15.0,56,0.00,,,0.00,Wunderground v.1.15,2013-04-27 02:34:00,
2013-04-26 21:38:00,54.0,39.1,30.03,NNE,19,5.0,15.0,57,0.00,,,0.00,Wunderground v.1.15,2013-04-27 02:38:00,
2013-04-26 21:40:00,53.9,39.0,30.04,NNE,19,5.0,5.0,57,0.00,,,0.00,Wunderground v.1.15,2013-04-27 02:40:00,
2013-04-26 21:42:00,53.8,38.9,30.04,NNE,26,5.0,15.0,57,0.00,,,0.00,Wunderground v.1.15,2013-04-27 02:42:00,
2013-04-26 21:48:00,52.5,39.4,30.04,NNE,18,3.0,15.0,61,0.00,,,0.00,Wunderground v.1.15,2013-04-27 02:48:00,
2013-04-26 21:50:00,52.2,39.6,30.04,NNE,18,3.0,3.0,62,0.00,,,0.00,Wunderground v.1.15,2013-04-27 02:50:00,
2013-04-26 21:54:00,51.8,40.0,30.05,North,359,2.0,15.0,64,0.00,,,0.00,Wunderground v.1.15,2013-04-27 02:54:00,
2013-04-26 21:58:00,51.7,39.9,30.04,NNE,16,2.0,15.0,64,0.00,,,0.00,Wunderground v.1.15,2013-04-27 02:58:00,
2013-04-26 22:02:00,51.6,39.4,30.04,NNE,20,3.0,15.0,63,0.00,,,0.00,Wunderground v.1.15,2013-04-27 03:02:00,
2013-04-26 22:04:00,51.5,39.3,30.05,NNE,27,3.0,15.0,63,0.00,,,0.00,Wunderground v.1.15,2013-04-27 03:04:00,
2013-04-26 22:06:00,51.3,39.1,30.05,NNE,28,3.0,15.0,63,0.00,,,0.00,Wunderground v.1.15,2013-04-27 03:06:00,
2013-04-26 22:08:00,51.0,39.2,30.05,NNE,31,3.0,15.0,64,0.00,,,0.00,Wunderground v.1.15,2013-04-27 03:08:00,
2013-04-26 22:10:00,50.8,39.1,30.05,NE,34,3.0,3.0,64,0.00,,,0.00,Wunderground v.1.15,2013-04-27 03:10:00,
2013-04-26 22:12:00,50.5,38.8,30.05,NE,34,2.0,15.0,64,0.00,,,0.00,Wunderground v.1.15,2013-04-27 03:12:00,
2013-04-26 22:14:00,50.2,38.5,30.05,NNE,25,2.0,15.0,64,0.00,,,0.00,Wunderground v.1.15,2013-04-27 03:14:00,
2013-04-26 22:18:00,49.7,38.4,30.05,NNE,25,1.0,15.0,65,0.00,,,0.00,Wunderground v.1.15,2013-04-27 03:18:00,
2013-04-26 22:22:00,49.6,38.3,30.05,North,3,1.0,15.0,65,0.00,,,0.00,Wunderground v.1.15,2013-04-27 03:22:00,
2013-04-26 22:24:00,49.6,38.7,30.05,NNE,30,1.0,15.0,66,0.00,,,0.00,Wunderground v.1.15,2013-04-27 03:24:00,
2013-04-26 22:28:00,49.6,38.7,30.05,NE,43,2.0,15.0,66,0.00,,,0.00,Wunderground v.1.15,2013-04-27 03:28:00,
2013-04-26 22:30:00,49.5,39.0,30.05,NE,43,1.0,1.0,67,0.00,,,0.00,Wunderground v.1.15,2013-04-27 03:30:00,
2013-04-26 22:34:00,49.1,39.0,30.05,ENE,61,1.0,15.0,68,0.00,,,0.00,Wunderground v.1.15,2013-04-27 03:34:00,
2013-04-26 22:36:00,49.3,39.6,30.05,ENE,66,1.0,15.0,69,0.00,,,0.00,Wunderground v.1.15,2013-04-27 03:36:00,
2013-04-26 22:40:00,50.3,39.8,30.05,ENE,61,1.0,15.0,67,0.00,,,0.00,Wunderground v.1.15,2013-04-27 03:40:00,
2013-04-26 22:42:00,50.8,39.5,30.05,NE,40,2.0,15.0,65,0.00,,,0.00,Wunderground v.1.15,2013-04-27 03:42:00,
2013-04-26 22:44:00,51.0,39.2,30.05,NE,34,2.0,15.0,64,0.00,,,0.00,Wunderground v.1.15,2013-04-27 03:44:00,
2013-04-26 22:46:00,51.1,38.9,30.05,NNE,26,2.0,15.0,63,0.00,,,0.00,Wunderground v.1.15,2013-04-27 03:46:00,
2013-04-26 22:48:00,51.1,38.9,30.05,NNE,18,3.0,15.0,63,0.00,,,0.00,Wunderground v.1.15,2013-04-27 03:48:00,
2013-04-26 22:50:00,51.1,38.9,30.05,NNE,13,3.0,15.0,63,0.00,,,0.00,Wunderground v.1.15,2013-04-27 03:50:00,
2013-04-26 22:54:00,50.8,39.1,30.05,North,6,4.0,15.0,64,0.00,,,0.00,Wunderground v.1.15,2013-04-27 03:54:00,
2013-04-26 22:56:00,50.5,39.2,30.05,North,6,4.0,15.0,65,0.00,,,0.00,Wunderground v.1.15,2013-04-27 03:56:00,
2013-04-26 23:00:00,49.8,38.9,30.05,NE,49,3.0,3.0,66,0.00,,,0.00,Wunderground v.1.15,2013-04-27 04:00:00,
2013-04-26 23:02:00,49.4,38.9,30.05,NE,48,2.0,15.0,67,0.00,,,0.00,Wunderground v.1.15,2013-04-27 04:02:00,
2013-04-26 23:04:00,49.1,39.0,30.05,NNE,28,2.0,15.0,68,0.00,,,0.00,Wunderground v.1.15,2013-04-27 04:04:00,
2013-04-26 23:06:00,48.9,39.2,30.05,NNE,27,2.0,15.0,69,0.00,,,0.00,Wunderground v.1.15,2013-04-27 04:06:00,
2013-04-26 23:08:00,48.8,38.7,30.05,NNE,18,2.0,15.0,68,0.00,,,0.00,Wunderground v.1.15,2013-04-27 04:08:00,
2013-04-26 23:10:00,48.8,38.7,30.05,NNE,25,2.0,15.0,68,0.00,,,0.00,Wunderground v.1.15,2013-04-27 04:10:00,
2013-04-26 23:14:00,48.7,38.2,30.06,NNE,30,3.0,15.0,67,0.00,,,0.00,Wunderground v.1.15,2013-04-27 04:14:00,
2013-04-26 23:16:00,48.6,38.5,30.06,NNE,27,3.0,15.0,68,0.00,,,0.00,Wunderground v.1.15,2013-04-27 04:16:00,
2013-04-26 23:18:00,48.7,38.6,30.06,NNE,23,3.0,15.0,68,0.00,,,0.00,Wunderground v.1.15,2013-04-27 04:18:00,
2013-04-26 23:22:00,48.7,39.0,30.06,NNE,21,3.0,15.0,69,0.00,,,0.00,Wunderground v.1.15,2013-04-27 04:22:00,
2013-04-26 23:24:00,48.7,39.0,30.06,NNE,23,3.0,15.0,69,0.00,,,0.00,Wunderground v.1.15,2013-04-27 04:24:00,
2013-04-26 23:28:00,48.4,39.1,30.06,NNE,23,3.0,15.0,70,0.00,,,0.00,Wunderground v.1.15,2013-04-27 04:28:00,
2013-04-26 23:32:00,48.2,39.2,30.06,NNE,30,2.0,15.0,71,0.00,,,0.00,Wunderground v.1.15,2013-04-27 04:32:00,
2013-04-26 23:34:00,48.1,39.1,30.06,NNE,28,2.0,15.0,71,0.00,,,0.00,Wunderground v.1.15,2013-04-27 04:34:00,
2013-04-26 23:36:00,47.9,38.9,30.06,NNE,28,2.0,15.0,71,0.00,,,0.00,Wunderground v.1.15,2013-04-27 04:36:00,
2013-04-26 23:39:00,47.7,38.8,30.06,NNE,28,1.0,1.0,71,0.00,,,0.00,Wunderground v.1.15,2013-04-27 04:39:00,
2013-04-26 23:42:00,47.6,39.0,30.06,SE,145,1.0,2.0,72,0.00,,,0.00,Wunderground v.1.15,2013-04-27 04:42:00,
2013-04-26 23:44:00,47.6,40.1,30.07,SSE,148,1.0,15.0,75,0.00,,,0.00,Wunderground v.1.15,2013-04-27 04:44:00,
2013-04-26 23:46:00,47.6,40.1,30.07,SSE,155,1.0,15.0,75,0.00,,,0.00,Wunderground v.1.15,2013-04-27 04:46:00,
2013-04-26 23:48:00,47.6,40.4,30.07,SSE,152,1.0,15.0,76,0.00,,,0.00,Wunderground v.1.15,2013-04-27 04:48:00,
2013-04-26 23:50:00,47.7,40.5,30.07,SSE,162,2.0,15.0,76,0.00,,,0.00,Wunderground v.1.15,2013-04-27 04:50:00,
2013-04-26 23:52:00,47.7,40.5,30.07,SE,139,2.0,15.0,76,0.00,,,0.00,Wunderground v.1.15,2013-04-27 04:52:00,
2013-04-26 23:54:00,47.7,41.2,30.07,SE,142,2.0,15.0,78,0.00,,,0.00,Wunderground v.1.15,2013-04-27 04:54:00,
2013-04-26 23:58:00,47.6,39.7,30.08,SE,136,2.0,15.0,74,0.00,,,0.00,Wunderground v.1.15,2013-04-27 04:58:00,